TimeCDT,TemperatureF,Dew PointF,Humidity,Sea Level PressureIn,VisibilityMPH,Wind Direction,Wind SpeedMPH,Gust SpeedMPH,PrecipitationIn,Events,Conditions,WindDirDegrees,DateUTC
12:53 AM,69.1,66.0,90,30.05,5.0,Calm,Calm,-,N/A,,Clear,0,2013-06-20 05:53:00
1:53 AM,68.0,66.0,93,30.06,6.0,North,-9999.0,-,N/A,,Clear,0,2013-06-20 06:53:00
2:53 AM,68.0,66.0,93,30.06,5.0,Calm,Calm,-,N/A,,Clear,0,2013-06-20 07:53:00
3:53 AM,68.0,66.0,93,30.08,5.0,Calm,Calm,-,N/A,,Clear,0,2013-06-20 08:53:00
4:53 AM,68.0,66.0,93,30.09,6.0,Calm,Calm,-,N/A,,Clear,0,2013-06-20 09:53:00
5:53 AM,68.0,66.0,93,30.10,6.0,ESE,3.5,-,N/A,,Clear,120,2013-06-20 10:53:00
6:53 AM,71.1,66.9,87,30.12,8.0,East,3.5,-,N/A,,Clear,90,2013-06-20 11:53:00
7:53 AM,75.0,68.0,79,30.13,9.0,Calm,Calm,-,N/A,,Clear,0,2013-06-20 12:53:00
8:53 AM,80.1,69.1,69,30.15,10.0,SE,6.9,-,N/A,,Clear,140,2013-06-20 13:53:00
9:53 AM,82.9,63.0,51,30.16,10.0,South,8.1,-,N/A,,Clear,170,2013-06-20 14:53:00
10:53 AM,87.1,63.0,44,30.16,10.0,Variable,5.8,-,N/A,,Clear,0,2013-06-20 15:53:00
11:53 AM,87.1,64.9,48,30.15,10.0,South,5.8,-,N/A,,Clear,170,2013-06-20 16:53:00
12:10 PM,87.8,66.2,49,30.17,2.5,Variable,5.8,-,N/A,,Haze,0,2013-06-20 17:10:00
12:22 PM,87.8,66.2,49,30.17,10.0,South,6.9,-,N/A,,Scattered Clouds,190,2013-06-20 17:22:00
12:53 PM,87.1,66.9,51,30.14,10.0,SSW,8.1,-,N/A,,Mostly Cloudy,200,2013-06-20 17:53:00
1:53 PM,86.0,66.0,51,30.14,10.0,ESE,5.8,-,N/A,,Mostly Cloudy,110,2013-06-20 18:53:00
2:53 PM,91.0,66.9,45,30.12,10.0,Variable,3.5,-,N/A,,Partly Cloudy,0,2013-06-20 19:53:00
3:53 PM,91.0,64.9,42,30.11,10.0,ESE,5.8,-,N/A,,Partly Cloudy,120,2013-06-20 20:53:00
4:53 PM,90.0,64.9,43,30.09,10.0,SSW,9.2,-,N/A,,Scattered Clouds,200,2013-06-20 21:53:00
5:53 PM,89.1,63.0,42,30.08,10.0,South,6.9,-,N/A,,Clear,170,2013-06-20 22:53:00
6:53 PM,86.0,62.1,44,30.09,8.0,SSE,6.9,-,N/A,,Clear,160,2013-06-20 23:53:00
7:53 PM,80.1,68.0,67,30.10,7.0,SE,3.5,-,N/A,,Clear,140,2013-06-21 00:53:00
8:53 PM,77.0,69.1,76,30.12,10.0,East,4.6,-,N/A,,Clear,90,2013-06-21 01:53:00
9:01 PM,77.0,69.8,78,30.16,10.0,ENE,18.4,31.1,N/A,Thunderstorm,Partly Cloudy,60,2013-06-21 02:01:00
9:25 PM,-9999,-9999,N/A,-9999,-9999.0,North,-9999.0,-,N/A,,Unknown,0,2013-06-21 02:25:00
9:33 PM,71.6,62.6,73,30.16,-9999.0,North,-9999.0,-,N/A,Thunderstorm,Unknown,0,2013-06-21 02:33:00
9:40 PM,69.8,64.4,83,30.17,8.0,East,18.4,-,N/A,Rain-Thunderstorm,Light Rain,80,2013-06-21 02:40:00
9:53 PM,70.0,64.0,81,30.16,10.0,ESE,10.4,19.6,N/A,Rain-Thunderstorm,Light Rain,110,2013-06-21 02:53:00
10:21 PM,68.0,64.4,88,30.19,10.0,ESE,5.8,-,0.00,,Mostly Cloudy,120,2013-06-21 03:21:00
10:53 PM,70.0,64.0,81,30.18,10.0,NW,5.8,-,0.00,,Mostly Cloudy,320,2013-06-21 03:53:00
11:53 PM,68.0,66.0,93,30.15,10.0,East,4.6,-,0.00,,Partly Cloudy,80,2013-06-21 04:53:00